Powrót do katalogu

LEMUR-2 KUTAR

AktywnyPogodaSSO
NORAD 67394·PAYLOAD·🇺🇸 United States

Wystrzelony Jan 11, 2026 z Vandenberg Space Force Base

Loading…

Następne Przeloty (najbliższe 24 godziny)

TLE

ŚwieżeSource: Space-Track

Epoka: Sep 14, 2026, 23:17 UTC

1 67394U 26004AH  26257.97033450  .00004127  00000-0  19429-3 0  9996
2 67394  97.4558 255.9432 0009482  33.8374 326.3464 15.20062751 37401

Śledź LEMUR-2 KUTAR w czasie rzeczywistym z AllMySat

Download on the App Store